Location: Peebles
(55.6412°N, 3.1714°W)
Time: 21:30:07
(UTC+00:00)

deb Agena D - Pass Details

Date: 25 September 2023
Orbit: 794 x 979 km, 99.8° (Epoch: 28 November)

Event Time Altitude Azimuth Distance (km) Brightness Sun altitude
Rises 01:06:49 0° 19° (NNE) 3,696 10.5 -35.0°
Reaches altitude 10° 01:09:21 10° 23° (NNE) 2,744 9.5 -35.0°
Enters shadow 01:13:44 45° 46° (NE) 1,312 7.3 -35.0°
